Regional Weather Roundup
Issued by NWS

Home | Current Version | Previous Version | Text Only | Print | Product List | Glossary On
Versions: 1 2 3 4 5 6 7 8 9 10 11 12 13 14 15 16 17 18 19 20 21 22 23 24 25 26 27 28 29 30 31 32 33 34 35 36 37 38 39 40 41 42 43 44 45 46 47 48 49 50
000
ASMX46 KSGX 121311
RWRMX

MEXICAN WEATHER ROUNDUP
NATIONAL WEATHER SERVICE SAN DIEGO CA
500 AM PST TUE DEC 12 2017

BAJA CALIFORNIA

CITY           SKY/WX    TMP DP  RH WIND       PRES   REMARKS
ENSENADA NW      N/A     62  32  31 CALM      30.08S
LA PAZ         PTCLDY    66  55  68 NE6       30.08
S.J. DEL CABO  PTCLDY    68  57  68 W12       30.05
TIJUANA        CLEAR     54   5  14 CALM      30.21

NORTHWESTERN MEXICO

CITY           SKY/WX    TMP DP  RH WIND       PRES   REMARKS
CULIACAN       MOCLDY    63  54  72 CALM      30.00
HERMOSILLO     CLEAR     55  34  44 NE3       30.12
JUAREZ         PTCLDY    37  18  44 N7        30.45  WCI  32
OBREGON        CLEAR     54  50  87 SE2       30.03

NORTHEASTERN MEXICO

CITY           SKY/WX    TMP DP  RH WIND       PRES   REMARKS
MONCLOVA       MOCLDY    52  39  62 CALM      30.33
MONTERREY      MOCLDY    50  41  71 NW6       30.30R
REYNOSA        MOCLDY    52  43  71 CALM      30.28
SALTILLO       PTCLDY    41  34  75 CALM      30.43R
TORREON        PTCLDY    45  39  81 CALM      30.38
VICTORIA       MOCLDY    46  39  76 MISG      30.31

WESTERN MEXICO

CITY           SKY/WX    TMP DP  RH WIND       PRES   REMARKS
AGUASCALIENTES MOCLDY    39  19  45 NE9       30.39  WCI  33
COLIMA         MOCLDY    64  43  45 CALM      30.12
DURANGO        PTCLDY    34  21  60 CALM      30.43
GUADALAJARA    CLEAR     34  27  75 CALM      30.31
MAZATLAN       MOCLDY    57  54  88 NE5       29.99S
PTO. VALLARTA  PTCLDY    61  52  72 NE5         N/A
TEPIC            N/A    N/A N/A N/A MISG        N/A
URUAPAN        CLEAR     45  39  81 CALM      30.24
ZACATECAS      PTCLDY    32  30  93 CALM      30.41

CENTRAL MEXICO

CITY           SKY/WX    TMP DP  RH WIND       PRES   REMARKS
CUERNAVACA     CLEAR     48  32  53 NW3       30.27
LEON           PTCLDY    39  23  52 CALM      30.42R
MEXICO CITY    PTCLDY    36  21  55 E5        30.43R WCI  32
MORELIA        CLEAR     28  23  80 CALM      30.36
POZA RICA      CLEAR     50  46  87 CALM      30.31
QUERETARO      PTCLDY    30  23  74 MISG      30.44R
S. LUIS POTOSI MOCLDY    34  16  47 CALM      30.38
TAMPICO        PTCLDY   N/A N/A N/A CALM      30.28R
TOLUCA         CLEAR     23  19  86 CALM      30.44
VERACRUZ       CLOUDY    63  52  67 W3        30.23R

SOUTHERN MEXICO

CITY           SKY/WX    TMP DP  RH WIND       PRES   REMARKS
ACAPULCO       PTCLDY    73  66  78 NE6       29.97R
B. DE HUATULCO   N/A    N/A N/A N/A MISG        N/A
MINATITLAN     CLOUDY    64  63  94 CALM      30.18
OAXACA         CLEAR     39  36  87 N6        30.36R WCI  35
PTO. ESCONDIDO CLEAR     66  54  63 NE12      30.07
TAPACHULA      MOCLDY    72  70  94 CALM      29.97R
TUX. GUTIERREZ MOCLDY    54  52  94 CALM      30.22R
VILLAHERMOSA   FOG       59  59 100 W3        30.22  VSB 0
ZIHUATANEJO    PTCLDY    70  64  83 E3        29.97

YUCATAN PENINSULA

CITY           SKY/WX    TMP DP  RH WIND       PRES   REMARKS
CAMPECHE       PTCLDY    59  59 100 CALM      30.17R
CANCUN         PTCLDY    55  54  94 NW5       30.16R
CHETUMAL         N/A    N/A N/A N/A MISG        N/A
C. DEL CARMEN  MOCLDY   N/A N/A N/A E5        30.21
COZUMEL        MOCLDY    70  61  73 N13       30.14R
MERIDA         PTCLDY    57  55  94 CALM      30.20R

$$





USA.gov is the U.S. government's official web portal to all federal, state and local government web resources and services.